TimeCST,TemperatureF,Dew PointF,Humidity,Sea Level PressureIn,VisibilityMPH,Wind Direction,Wind SpeedMPH,Gust SpeedMPH,PrecipitationIn,Events,Conditions,WindDirDegrees,DateUTC
12:53 AM,64.9,48.9,56,29.88,10.0,SSE,6.9,-,N/A,,Clear,150,2012-11-09 06:53:00
1:53 AM,59.0,48.0,67,29.88,10.0,East,5.8,-,N/A,,Clear,100,2012-11-09 07:53:00
2:53 AM,57.0,48.0,72,29.88,10.0,East,3.5,-,N/A,,Clear,100,2012-11-09 08:53:00
3:53 AM,55.9,46.9,72,29.88,10.0,ESE,4.6,-,N/A,,Clear,110,2012-11-09 09:53:00
4:53 AM,54.0,46.9,77,29.90,10.0,ESE,3.5,-,N/A,,Clear,110,2012-11-09 10:53:00
6:53 AM,55.9,52.0,87,29.90,9.0,ESE,6.9,-,N/A,,Clear,120,2012-11-09 12:53:00
7:53 AM,60.1,55.9,86,29.91,10.0,SE,6.9,-,N/A,,Clear,140,2012-11-09 13:53:00
8:53 AM,66.0,59.0,78,29.91,10.0,SSE,12.7,-,N/A,,Clear,160,2012-11-09 14:53:00
9:53 AM,70.0,59.0,68,29.90,10.0,South,15.0,24.2,N/A,,Scattered Clouds,170,2012-11-09 15:53:00
10:15 AM,71.6,59.0,64,29.93,10.0,South,17.3,23.0,N/A,,Mostly Cloudy,180,2012-11-09 16:15:00
10:36 AM,71.6,59.0,64,29.92,10.0,South,17.3,24.2,N/A,,Scattered Clouds,190,2012-11-09 16:36:00
11:53 AM,75.0,59.0,57,29.87,10.0,South,17.3,26.5,N/A,,Unknown,180,2012-11-09 17:53:00
12:53 PM,79.0,59.0,50,29.82,10.0,South,18.4,28.8,N/A,,Clear,170,2012-11-09 18:53:00
1:53 PM,81.0,57.9,45,29.79,10.0,South,18.4,29.9,N/A,,Clear,180,2012-11-09 19:53:00
2:53 PM,82.9,57.0,41,29.77,10.0,South,17.3,32.2,N/A,,Clear,180,2012-11-09 20:53:00
3:53 PM,82.9,55.9,39,29.76,10.0,South,18.4,29.9,N/A,,Clear,180,2012-11-09 21:53:00
4:53 PM,81.0,55.9,42,29.78,10.0,South,16.1,24.2,N/A,,Clear,180,2012-11-09 22:53:00
5:53 PM,77.0,55.0,47,29.78,10.0,South,13.8,21.9,N/A,,Clear,170,2012-11-09 23:53:00
6:53 PM,73.0,54.0,51,29.81,10.0,South,12.7,-,N/A,,Clear,170,2012-11-10 00:53:00
7:53 PM,72.0,55.0,55,29.82,10.0,SSE,11.5,-,N/A,,Clear,160,2012-11-10 01:53:00
8:53 PM,71.1,53.1,53,29.83,10.0,SSE,16.1,-,N/A,,Clear,160,2012-11-10 02:53:00
9:53 PM,70.0,53.1,55,29.84,10.0,South,12.7,-,N/A,,Clear,170,2012-11-10 03:53:00
10:53 PM,70.0,54.0,57,29.86,10.0,South,13.8,-,N/A,,Clear,170,2012-11-10 04:53:00
11:53 PM,69.1,55.0,61,29.83,10.0,South,13.8,-,N/A,,Clear,170,2012-11-10 05:53:00